CST,Max TemperatureF,Mean TemperatureF,Min TemperatureF,Max Dew PointF,MeanDew PointF,Min DewpointF,Max Humidity, Mean Humidity, Min Humidity, Max Sea Level PressureIn, Mean Sea Level PressureIn, Min Sea Level PressureIn, Max VisibilityMiles, Mean VisibilityMiles, Min VisibilityMiles, Max Wind SpeedMPH, Mean Wind SpeedMPH, Max Gust SpeedMPH,PrecipitationIn, CloudCover, Events, WindDirDegrees
2014-1-1,84,78,73,75,73,72,100,87,69,30.06,29.99,29.92,12,8,2,7,5,,0.91,4,Rain,310
2014-1-2,83,77,71,75,72,70,100,83,67,30.01,29.94,29.90,14,8,5,9,5,,0.20,3,Rain,347
2014-1-3,78,74,71,73,71,70,100,91,75,30.03,29.98,29.92,14,7,1,34,12,,0.59,5,Rain,338
2014-1-4,78,74,69,76,71,69,100,92,74,30.04,29.98,29.92,17,7,3,10,8,,0.31,6,Rain,333
2014-1-5,82,76,69,73,71,69,100,86,70,30.01,29.94,29.88,14,8,6,9,6,,0.00,4,Rain,307
2014-1-6,84,76,68,75,72,69,96,85,68,30.10,30.00,29.93,12,7,2,17,4,,0.08,5,,313
2014-1-7,70,66,63,66,62,60,94,81,69,30.23,30.16,29.91,12,7,3,16,14,,0.03,7,Rain,337
2014-1-8,68,66,64,67,64,59,99,91,76,30.21,30.13,30.07,12,6,1,15,10,,0.16,8,Rain,296
2014-1-9,71,68,65,70,67,64,100,93,88,30.11,30.05,30.00,12,6,4,12,8,,0.24,7,Rain,274
2014-1-10,82,74,66,73,70,65,100,84,65,30.05,29.98,29.92,14,8,6,9,3,,0.00,3,Rain,32
2014-1-11,85,78,71,75,74,72,100,81,60,30.04,29.98,29.94,14,8,6,9,5,,0.00,3,,116
2014-1-12,83,77,71,76,73,70,100,85,63,30.08,30.02,29.97,14,8,6,10,3,,0.08,4,Rain,83
2014-1-13,84,78,71,74,71,66,100,75,47,30.05,29.99,29.94,14,9,6,9,5,,0.00,3,,97
2014-1-14,83,76,69,75,72,68,100,85,64,30.05,29.98,29.93,12,7,0,10,2,,0.00,4,Fog,38
2014-1-15,78,74,69,72,70,62,100,92,72,30.18,30.05,29.97,14,6,2,12,6,,0.12,7,Rain,349
2014-1-16,75,70,64,63,58,53,94,67,34,30.21,30.13,30.06,14,8,6,9,7,,0.00,2,,350
2014-1-17,73,66,59,65,59,55,100,73,47,30.17,30.09,29.89,14,9,6,9,4,,0.00,5,,322
2014-1-18,76,70,65,65,63,62,94,73,52,30.21,30.13,29.90,16,9,6,12,7,,0.01,6,,334
2014-1-19,80,73,66,70,67,64,100,82,61,30.23,30.14,29.91,14,8,6,12,6,,0.03,5,Rain,354
2014-1-20,78,74,69,70,68,66,94,82,58,30.15,30.09,30.03,12,8,6,9,4,,0.03,6,Rain,47
2014-1-21,81,73,65,70,67,64,94,79,51,30.09,30.05,30.01,14,8,6,9,2,,0.00,4,Rain,28
2014-1-22,79,72,66,68,65,63,94,76,50,30.16,30.09,30.04,14,8,6,13,6,,0.00,3,Rain,12
2014-1-23,77,72,68,72,67,-6,96,84,5,30.11,30.06,30.01,14,8,6,15,5,,0.00,4,Rain,28
2014-1-24,74,72,70,73,71,70,100,95,89,30.18,30.12,30.06,12,5,0,12,6,,0.71,6,Rain,349
2014-1-25,78,73,68,72,69,67,94,88,78,30.18,30.11,30.05,12,8,2,12,8,,0.94,5,Rain,337
2014-1-26,79,74,68,71,68,66,100,84,66,30.09,30.01,29.93,14,8,6,6,3,,0.00,6,,317
2014-1-27,82,74,66,73,69,66,100,79,57,29.98,29.93,29.87,14,9,6,7,2,,0.00,1,,127
2014-1-28,85,77,69,75,72,68,96,81,59,30.00,29.94,29.89,14,8,6,8,3,,0.00,3,,123
2014-1-29,85,78,72,75,73,72,95,80,57,30.01,29.94,29.89,14,8,6,10,2,,0.00,3,,101
2014-1-30,79,74,68,70,68,66,94,80,66,30.07,30.01,29.96,12,8,6,12,7,,0.00,5,,271
2014-1-31,79,72,66,72,68,64,100,84,65,30.05,29.98,29.93,12,7,2,8,4,,0.00,5,,304